Back to catalog

GHGSAT-C6

AliveScienceSSO
NORAD 56204·PAYLOAD·🇨🇦 Canada

Launched Apr 15, 2023 from Vandenberg Space Force Base

Loading…

Next Passes (next 24 hours)

TLE

FreshSource: Space-Track

Epoch: Sep 15, 2026, 00:11 UTC

1 56204U 23054AC  26258.00767064  .00016724  00000-0  24665-3 0  9990
2 56204  97.2957 169.6345 0007925  75.4317 284.7816 15.55421501192403

Track GHGSAT-C6 in real time with AllMySat

Download on the App Store